Dewpoint
9 9 10 11 11 11 11 11 12 11 11 12 13 13 13 13 13 13 12 11 11 11 12 12 13 13 13 12 12 13 15 15 15 15 14 14 14 14 14 14 13 13
8 9 10 10 10 10 11 11 11 11 10 10 12 13 13 13 13 13 12 11 10 11 11 11 12 12 12 12 12 12 13 14 15 15 14 14 14 14 14 14 14 13
9 9 9 10 9 10 10 11 11 11 10 10 10 12 13 13 13 13 12 10 10 11 11 11 12 12 12 12 12 12 12 13 14 14 14 14 14 14 14 14 14 14
11 9 9 9 9 9 10 10 11 11 10 9 9 10 12 13 13 13 12 10 10 10 10 11 11 11 11 12 12 12 12 12 12 13 13 14 14 13 13 13 13 13
13 11 9 9 9 9 9 10 10 10 9 8 8 9 10 12 12 12 12 11 10 10 10 10 11 11 11 11 11 11 11 11 11 12 12 13 13 13 13 13 13 13
13 13 11 9 9 9 9 9 9 9 9 8 7 8 9 10 11 11 12 11 10 10 9 10 10 11 10 11 11 10 10 11 10 11 11 11 12 12 12 12 12 12
14 14 13 11 9 8 8 8 8 8 8 8 8 7 7 8 9 9 10 11 11 11 10 10 10 10 10 10 10 10 10 10 10 10 10 10 10 10 11 11 10 10
14 14 14 13 11 9 8 8 8 8 7 7 7 7 6 7 7 7 9 10 11 11 11 10 10 10 10 10 10 9 9 9 9 9 9 9 9 9 10 10 10 9
14 14 14 14 13 12 10 8 7 7 7 7 6 6 6 6 5 5 7 8 9 10 10 10 10 10 10 10 9 8 7 7 6 7 7 8 8 9 9 9 9 9
14 14 14 14 14 13 12 11 9 8 7 6 6 6 5 5 5 5 6 7 7 8 8 8 9 9 10 9 7 5 3 3 2 2 3 5 6 7 8 8 8 9
14 14 14 14 14 14 14 13 11 10 8 7 6 6 5 5 5 4 4 5 5 6 6 6 7 8 9 8 5 2 1 1 1 1 1 1 2 3 5 6 7 7
14 14 14 14 14 14 14 14 13 13 11 9 7 6 5 5 4 4 3 3 3 3 4 4 5 6 7 5 2 1 1 1 1 1 1 0 0 0 2 3 4 5
14 14 14 14 14 14 14 14 14 13 13 12 11 8 6 5 5 4 3 2 2 2 2 2 2 3 2 2 1 0 0 1 1 1 1 1 1 0 0 0 1 3
14 14 14 14 14 14 14 14 14 14 13 14 13 12 10 6 4 4 3 3 2 1 1 1 1 1 1 0 0 0 0 0 0 1 1 1 1 0 0 0 -0 0
14 14 14 14 14 14 14 14 14 14 14 14 14 14 13 11 8 5 4 3 3 3 2 2 2 2 1 1 1 0 0 0 0 1 1 0 1 0 0 0 -0 -1
14 14 14 14 14 14 14 14 14 14 14 14 14 14 14 14 13 10 7 5 3 3 3 3 3 2 1 1 1 1 1 1 1 1 1 1 1 1 -0 0 -0 -1
14 15 14 14 14 14 14 14 14 14 14 14 14 14 14 15 15 14 12 9 6 4 3 3 2 2 1 1 1 1 1 1 1 1 1 1 1 0 -0 -0 -1 -2
15 15 15 15 15 15 14 14 14 14 14 14 14 15 15 15 15 15 14 13 11 8 6 4 2 -0 -0 -1 -1 -0 -0 0 0 0 -0 -0 -0 -0 -1 -2 -2 -2
15 15 15 15 15 15 15 15 14 15 15 15 15 15 15 15 15 15 15 14 14 13 11 9 7 3 2 2 1 1 1 1 1 1 -0 -1 -2 -1 -1 -1 -1 -1
16 15 15 15 15 15 15 15 15 15 15 15 15 15 15 15 15 15 15 15 15 14 14 13 12 9 7 7 6 6 6 6 6 6 5 3 2 1 1 1 1 1
16 16 16 16 16 16 16 15 15 15 15 15 15 15 15 15 15 16 15 15 15 15 15 15 14 13 12 11 11 10 11 11 11 10 9 9 7 5 4 3 3 3
16 17 17 16 16 16 16 16 16 16 16 16 16 16 16 16 16 16 16 16 15 15 15 15 15 15 15 14 14 14 14 14 14 13 13 12 10 8 6 5 5 5
17 17 17 17 17 17 16 16 16 16 16 16 16 16 16 16 16 16 16 16 15 16 15 15 15 15 15 16 16 16 16 16 16 15 14 14 12 10 8 7 6 6
17 17 17 17 17 17 17 17 16 16 16 16 16 16 16 16 16 16 16 16 16 16 16 16 16 16 16 16 16 16 17 17 17 16 16 15 13 11 10 9 8 7
17 17 17 17 17 17 17 17 17 17 16 16 16 16 16 16 16 16 16 16 16 16 16 16 16 16 16 16 16 17 17 17 17 17 17 15 13 12 11 10 9 8
16 16 17 17 17 17 18 18 17 17 17 17 16 17 16 16 16 16 16 16 16 16 16 17 17 17 17 17 17 17 17 17 18 18 17 15 14 12 12 11 9 8
Wind_Speed
26 25 24 23 21 21 21 20 20 19 19 19 18 16 14 12 10 10 10 10 10 9 9 9 9 8 7 7 7 7 7 7 7 6 5 4 3 3 3 3 3 4
26 26 25 24 22 21 21 20 20 19 19 19 19 17 15 13 11 11 11 11 10 10 10 10 10 10 9 8 7 7 7 7 7 7 6 5 4 4 3 3 3 3
25 25 25 25 24 22 21 21 20 19 19 20 19 18 17 15 13 12 11 11 11 11 11 11 11 11 10 9 8 7 7 7 7 8 8 6 5 4 4 4 4 4
24 24 25 25 24 23 22 22 21 20 20 20 20 19 17 16 15 13 12 12 12 12 12 11 11 11 11 11 10 8 7 7 7 8 8 7 6 5 4 4 4 4
24 24 24 24 24 24 23 23 22 21 21 20 20 19 18 17 16 14 13 13 13 13 13 13 12 12 12 12 11 10 9 7 7 7 8 7 7 6 6 5 5 5
25 23 23 23 22 23 24 24 23 22 21 21 20 20 19 18 17 16 15 14 14 14 14 14 14 13 13 13 12 11 10 9 8 8 8 8 8 8 8 8 7 7
25 24 23 22 22 23 23 24 23 23 22 21 21 20 19 19 18 17 17 16 15 15 15 15 15 14 14 14 13 12 11 10 9 9 9 8 9 9 9 9 8 8
26 25 24 23 23 23 23 24 24 23 23 22 22 21 20 20 19 19 18 18 18 17 16 16 16 15 15 15 15 13 12 11 10 10 10 9 9 9 9 9 9 9
28 27 25 24 24 24 23 24 24 24 24 23 23 22 21 20 20 20 20 19 20 20 19 18 17 17 16 16 16 14 13 12 11 11 11 11 11 10 10 10 11 10
30 29 28 26 26 25 24 24 24 25 25 24 24 24 23 21 21 21 20 20 21 22 21 20 19 18 18 18 16 15 14 13 12 12 12 12 12 12 12 12 12 12
32 31 30 29 28 26 25 24 24 25 25 25 26 26 25 23 22 22 21 21 22 23 22 22 21 20 20 19 18 16 15 14 14 13 13 13 13 13 14 14 15 14
34 32 31 30 29 27 26 25 25 25 25 25 27 27 27 26 25 24 23 23 23 23 23 23 22 22 22 21 20 18 17 17 16 15 14 14 14 14 14 15 16 16
34 33 32 31 29 27 26 26 26 25 25 25 26 28 29 29 28 27 26 24 24 24 24 24 24 23 23 23 22 21 20 19 19 18 18 17 16 16 15 16 16 16
34 33 33 32 30 29 27 27 27 27 26 26 26 27 29 30 30 30 28 28 27 27 26 26 26 26 26 25 24 24 23 22 22 22 21 21 20 19 19 19 18 17
34 33 33 32 31 31 30 29 29 29 28 27 27 26 27 29 31 31 31 31 31 30 29 29 29 29 29 28 27 27 26 25 25 25 24 24 23 23 22 22 21 20
33 33 32 32 32 31 31 30 30 29 29 28 28 27 27 28 29 31 32 33 33 33 32 32 32 32 31 30 30 29 29 28 28 28 27 27 26 26 25 24 23 23
32 32 32 32 31 31 30 30 30 30 29 28 28 28 27 27 27 29 31 33 34 34 34 34 34 34 33 32 31 30 30 30 30 30 29 29 29 28 27 26 26 25
31 32 33 33 32 31 30 30 30 30 30 29 29 28 27 27 27 27 28 30 32 33 34 35 35 34 33 32 32 32 31 31 31 31 31 31 31 30 29 28 27 27
31 32 33 32 32 32 31 31 31 31 30 29 29 29 28 28 27 27 27 27 28 31 32 33 34 34 33 33 33 32 32 32 33 33 33 32 32 31 31 30 29 29
31 32 33 32 32 32 32 32 32 31 30 30 29 30 29 28 28 28 27 27 27 28 29 30 31 33 33 33 33 33 33 33 33 33 33 33 33 33 32 31 30 30
30 31 33 33 32 32 33 33 33 31 30 30 31 31 29 28 29 29 29 27 27 27 28 29 30 30 31 31 31 32 31 31 32 33 34 34 34 34 33 32 32 31
27 28 29 31 33 34 34 34 34 33 31 30 31 31 30 30 30 30 30 29 28 28 29 29 29 29 29 29 29 29 29 29 31 32 33 34 35 35 34 33 32 32
25 27 28 28 30 33 35 35 34 34 33 32 32 32 31 31 30 30 30 29 29 28 28 29 29 28 27 27 28 27 27 29 31 32 33 34 35 35 34 33 32 32
20 25 29 29 28 29 32 34 36 35 34 34 34 33 32 32 31 31 30 30 30 29 28 28 28 27 26 26 26 26 26 28 29 30 33 35 35 35 34 34 33 32
16 20 25 29 30 29 28 29 33 36 36 36 35 34 34 33 33 34 33 31 31 30 29 29 29 28 27 26 26 26 26 27 28 29 31 34 36 35 35 34 34 33
14 17 20 24 28 31 30 27 27 29 33 36 36 34 34 35 35 35 35 33 32 32 31 31 30 30 29 27 26 26 26 27 28 29 31 34 35 35 35 35 34 34
Wind_Direction
226 228 230 230 230 230 230 229 228 227 224 222 222 221 220 218 220 225 227 226 224 223 224 225 223 220 222 227 226 223 221 221 223 223 219 217 221 227 231 243 248 243
226 227 229 230 230 230 231 231 230 230 228 226 224 223 222 223 226 228 229 229 227 224 226 227 226 222 223 230 232 228 227 227 230 232 230 229 231 235 240 250 259 257
228 228 228 230 231 230 230 232 232 232 231 228 225 223 223 225 229 232 230 228 228 227 227 228 229 227 224 229 233 232 231 230 232 236 238 240 241 245 251 255 263 266
230 229 229 230 232 231 232 233 233 233 232 229 225 222 222 225 229 233 232 229 228 228 230 231 232 232 229 229 232 234 233 232 233 236 239 240 240 239 239 245 253 255
232 232 230 231 233 233 232 233 233 233 231 230 228 224 222 225 228 231 233 233 232 232 233 233 235 236 234 233 235 236 236 236 237 238 239 237 234 232 229 233 240 243
234 233 233 233 233 234 233 232 232 232 232 232 230 227 225 226 228 229 230 233 235 237 237 235 236 238 238 238 238 239 240 241 243 243 243 240 238 236 235 237 240 241
235 235 235 234 234 235 235 234 233 232 232 232 231 230 229 229 230 229 229 231 234 237 239 237 237 237 239 240 242 242 242 243 245 246 248 247 246 246 245 247 247 247
237 237 237 236 236 236 236 236 235 233 233 232 232 231 230 231 232 231 229 229 231 235 237 237 236 236 237 239 242 245 245 245 246 248 251 252 253 254 254 255 255 252
240 240 240 239 238 239 238 238 237 236 235 234 233 233 232 232 233 232 231 229 230 232 234 235 235 233 234 236 239 242 244 244 244 246 251 254 256 258 258 259 259 257
242 242 242 241 241 241 241 240 240 240 238 236 235 235 234 233 233 232 231 230 231 231 232 233 233 231 231 232 234 238 242 246 249 250 252 254 257 259 259 260 261 261
243 244 244 243 243 244 244 243 243 243 242 240 238 237 235 235 234 233 232 231 231 232 232 232 231 230 229 230 233 239 244 251 256 257 258 259 260 261 262 262 262 262
245 245 245 246 246 246 246 246 245 246 245 243 242 241 239 237 236 235 234 232 232 232 232 230 229 229 229 230 235 240 245 250 254 257 260 263 264 264 264 264 264 264
246 247 247 248 248 248 248 248 247 247 247 247 245 244 243 241 239 237 235 234 234 233 233 232 230 230 230 233 237 241 244 247 251 255 259 262 264 265 265 265 265 264
248 249 250 250 250 251 250 249 250 249 249 249 248 246 245 244 242 241 239 238 237 236 235 235 234 234 235 236 238 241 244 246 249 253 257 260 263 265 265 266 265 264
250 251 252 253 253 253 252 251 252 252 251 251 250 249 248 246 244 244 243 242 241 240 239 239 239 239 239 239 241 242 244 247 250 252 256 259 261 263 264 265 265 264
253 253 254 255 254 254 254 254 253 254 253 253 253 252 251 249 247 245 244 244 244 244 244 243 243 242 242 243 244 245 247 249 251 253 255 258 260 261 263 263 263 263
255 255 255 255 256 256 256 256 255 255 255 255 254 254 254 253 251 247 245 244 244 245 246 246 246 244 244 244 245 247 249 251 253 255 256 258 259 260 261 262 262 263
253 255 256 257 258 258 257 257 257 257 257 256 255 254 254 254 253 251 248 245 244 244 245 246 247 246 245 245 246 247 249 251 253 255 257 258 259 260 260 261 261 262
248 251 255 258 259 259 260 259 259 258 257 257 256 255 255 254 254 253 252 250 248 247 247 247 248 248 247 246 246 246 248 251 253 255 256 257 258 259 259 260 260 261
244 247 251 255 258 260 261 260 259 259 258 258 258 257 256 254 253 253 253 251 251 250 250 250 250 250 249 248 248 248 248 250 252 254 255 256 257 257 258 258 259 259
243 245 248 252 255 258 260 260 260 260 259 258 258 258 258 256 254 254 253 251 251 251 251 251 250 250 250 249 248 248 248 250 252 254 254 255 255 255 255 256 256 257
240 241 244 249 252 255 257 259 260 259 259 258 257 257 258 258 256 254 253 251 250 251 251 251 250 249 250 250 249 249 250 252 252 252 253 254 253 252 252 252 253 254
238 238 239 242 247 250 253 255 258 259 259 258 257 256 257 257 257 255 255 253 252 251 250 249 249 249 249 250 250 250 252 252 252 252 253 252 251 251 250 250 250 250
241 240 240 240 241 244 248 251 254 257 259 259 258 257 257 258 259 259 258 257 255 252 250 249 249 249 249 249 250 250 251 252 253 253 253 252 250 250 249 249 248 248
247 245 244 243 242 243 245 248 251 254 256 258 259 259 260 260 260 261 260 259 257 256 254 253 252 252 251 249 248 249 251 251 252 253 253 250 249 248 248 248 247 246
258 255 253 250 248 247 245 246 248 250 253 256 258 259 260 260 260 260 261 260 259 258 257 255 254 253 253 250 248 249 250 250 251 251 250 248 247 247 247 246 246 245
Height
1581 1583 1585 1587 1589 1591 1592 1594 1596 1598 1600 1602 1603 1605 1606 1607 1608 1608 1609 1610 1611 1612 1613 1614 1615 1616 1616 1617 1617 1618 1619 1620 1620 1620 1621 1621 1621 1622 1622 1622 1622 1623
1579 1581 1583 1585 1587 1589 1590 1592 1594 1596 1598 1600 1602 1604 1605 1606 1607 1607 1608 1609 1610 1611 1612 1613 1614 1615 1616 1616 1617 1617 1618 1619 1620 1620 1620 1621 1621 1621 1621 1622 1622 1622
1577 1579 1581 1583 1585 1587 1589 1590 1592 1594 1596 1598 1600 1602 1603 1604 1606 1606 1607 1608 1609 1610 1611 1612 1614 1614 1615 1615 1616 1617 1617 1618 1619 1619 1620 1620 1620 1621 1621 1621 1621 1621
1575 1577 1579 1581 1583 1585 1587 1589 1590 1592 1594 1596 1598 1600 1601 1603 1604 1605 1606 1607 1608 1609 1610 1611 1612 1613 1614 1615 1615 1616 1616 1617 1618 1618 1619 1619 1620 1620 1620 1620 1620 1621
1573 1575 1577 1579 1581 1583 1585 1586 1588 1590 1592 1594 1596 1598 1600 1601 1602 1603 1604 1605 1606 1608 1609 1610 1611 1612 1613 1614 1614 1615 1615 1616 1616 1617 1618 1618 1619 1619 1619 1619 1619 1620
1571 1573 1575 1577 1579 1581 1583 1584 1586 1588 1590 1592 1594 1596 1598 1599 1601 1602 1603 1604 1605 1606 1608 1609 1610 1611 1612 1613 1613 1614 1614 1615 1615 1616 1616 1617 1617 1618 1618 1618 1618 1619
1569 1571 1573 1575 1577 1579 1581 1582 1584 1586 1588 1590 1592 1594 1596 1597 1599 1600 1601 1602 1603 1605 1606 1607 1609 1610 1611 1611 1612 1613 1613 1614 1614 1614 1615 1615 1616 1616 1617 1617 1617 1617
1567 1569 1571 1573 1575 1577 1578 1580 1582 1584 1585 1587 1589 1591 1593 1595 1597 1598 1599 1600 1602 1603 1604 1605 1607 1608 1609 1610 1610 1611 1612 1612 1613 1613 1613 1614 1614 1615 1615 1615 1616 1616
1565 1567 1569 1571 1573 1574 1576 1578 1580 1581 1583 1585 1587 1589 1591 1593 1594 1596 1597 1598 1600 1601 1602 1603 1605 1606 1607 1608 1609 1610 1610 1611 1611 1612 1612 1612 1613 1613 1613 1614 1614 1614
1562 1564 1566 1568 1570 1572 1574 1576 1578 1579 1581 1583 1584 1586 1588 1590 1592 1593 1595 1596 1597 1598 1600 1601 1602 1604 1605 1606 1607 1608 1608 1609 1610 1610 1610 1611 1611 1611 1612 1612 1612 1612
1560 1561 1563 1565 1567 1569 1571 1573 1575 1577 1578 1580 1582 1583 1585 1587 1589 1591 1592 1594 1595 1596 1597 1599 1600 1601 1602 1603 1605 1606 1606 1607 1608 1608 1609 1609 1609 1610 1610 1610 1610 1610
1557 1558 1560 1562 1564 1567 1569 1571 1572 1574 1576 1577 1579 1581 1582 1584 1586 1587 1589 1591 1592 1594 1595 1596 1597 1599 1600 1601 1602 1603 1604 1605 1605 1606 1606 1607 1607 1607 1608 1608 1608 1608
1553 1555 1557 1559 1561 1563 1566 1568 1569 1571 1573 1574 1576 1578 1579 1581 1583 1584 1586 1588 1589 1591 1592 1594 1595 1596 1597 1598 1599 1600 1601 1602 1603 1603 1604 1604 1605 1605 1605 1606 1606 1606
1550 1553 1554 1556 1558 1560 1562 1564 1566 1568 1569 1571 1573 1574 1576 1578 1579 1581 1583 1585 1586 1588 1589 1591 1592 1593 1594 1595 1596 1597 1598 1599 1600 1600 1601 1601 1602 1602 1602 1603 1603 1604
1548 1550 1551 1553 1555 1557 1559 1561 1562 1564 1566 1568 1569 1571 1573 1574 1576 1578 1580 1581 1583 1584 1586 1587 1588 1589 1590 1592 1593 1594 1595 1596 1597 1597 1598 1598 1598 1599 1599 1600 1600 1601
1545 1547 1548 1550 1552 1553 1555 1557 1559 1561 1562 1564 1566 1567 1569 1571 1572 1574 1575 1577 1579 1580 1582 1583 1584 1585 1586 1588 1590 1591 1592 1593 1593 1594 1594 1595 1595 1595 1596 1596 1597 1598
1542 1544 1545 1547 1548 1550 1552 1554 1555 1557 1559 1560 1562 1564 1565 1567 1568 1570 1571 1573 1574 1575 1577 1578 1579 1581 1582 1584 1586 1587 1588 1589 1589 1590 1591 1591 1591 1592 1592 1593 1594 1595
1539 1541 1542 1543 1545 1547 1548 1550 1552 1553 1555 1556 1558 1559 1561 1562 1564 1565 1566 1568 1570 1571 1572 1573 1574 1576 1578 1580 1581 1583 1584 1585 1586 1586 1586 1587 1588 1588 1589 1590 1591 1591
1536 1538 1539 1540 1542 1543 1545 1547 1548 1550 1551 1552 1554 1556 1557 1558 1560 1561 1562 1564 1565 1566 1567 1568 1569 1571 1573 1575 1577 1578 1580 1581 1581 1582 1582 1583 1583 1584 1585 1586 1587 1588
1533 1534 1536 1537 1539 1541 1542 1544 1545 1546 1547 1549 1551 1552 1553 1554 1556 1557 1558 1559 1561 1561 1562 1564 1565 1566 1568 1570 1572 1573 1575 1576 1577 1577 1578 1578 1579 1580 1581 1582 1583 1584
1531 1532 1533 1534 1536 1538 1539 1540 1541 1542 1544 1546 1547 1548 1549 1550 1552 1553 1554 1555 1556 1557 1558 1559 1560 1561 1563 1565 1566 1568 1570 1571 1572 1572 1573 1573 1574 1575 1576 1578 1579 1579
1528 1529 1530 1531 1532 1534 1535 1536 1537 1538 1540 1542 1543 1544 1546 1546 1548 1549 1549 1551 1552 1553 1554 1554 1555 1557 1558 1560 1561 1563 1565 1566 1567 1567 1568 1568 1569 1570 1571 1573 1574 1575
1525 1525 1526 1527 1529 1530 1531 1532 1533 1534 1536 1538 1540 1541 1542 1542 1543 1545 1545 1546 1548 1548 1549 1550 1550 1552 1554 1555 1557 1559 1560 1561 1562 1562 1563 1563 1564 1565 1566 1568 1569 1570
1522 1522 1523 1524 1525 1526 1527 1528 1529 1531 1533 1534 1536 1537 1538 1539 1540 1541 1542 1542 1543 1544 1544 1545 1546 1548 1550 1551 1552 1554 1555 1556 1557 1558 1558 1558 1558 1560 1561 1562 1563 1565
1520 1520 1521 1521 1522 1523 1524 1525 1526 1527 1529 1531 1532 1534 1535 1536 1537 1537 1537 1538 1539 1539 1540 1541 1542 1543 1545 1546 1548 1549 1550 1551 1552 1553 1552 1552 1553 1555 1556 1557 1558 1560
1517 1518 1518 1519 1519 1519 1520 1522 1523 1524 1525 1527 1528 1530 1531 1532 1533 1533 1533 1534 1535 1535 1536 1536 1537 1538 1540 1541 1543 1544 1545 1546 1547 1547 1547 1547 1548 1550 1551 1552 1553 1555